Regional Weather Roundup
Issued by NWS

Home | Current Version | Previous Version | Graphics & Text | Print | Product List | Glossary On
Versions: 1 2 3 4 5 6 7 8 9 10 11 12 13 14 15 16 17 18 19 20 21 22 23 24 25 26 27 28 29 30 31 32 33 34 35 36 37 38 39 40 41 42 43 44 45 46 47 48 49 50
000
ASUS45 KCYS 311910
RWRWY

WYOMING REGIONAL WEATHER ROUNDUP
NATIONAL WEATHER SERVICE CHEYENNE WY
100 PM MDT TUE MAR 31 2015

NOTE:  "FAIR" INDICATES FEW OR NO CLOUDS BELOW 12,000 FEET
WITH NO SIGNIFICANT WEATHER AND/OR OBSTRUCTIONS TO VISIBILITY.

WYZ001-312000-
YELLOWSTONE NATIONAL PARK

CITY           SKY/WX    TMP DP  RH WIND       PRES   REMARKS
LK YELLOWSTONE   N/A     53  15  22 VRB5      29.98F
W YELLOWSTONE  NOT AVBL

$$
WYZ002>013-054>058-071-098>099-312000-
NORTHERN WYOMING

CITY           SKY/WX    TMP DP  RH WIND       PRES   REMARKS
JACKSON        SUNNY     55  27  33 CALM      29.95F
CODY           FAIR      63  21  20 SE10      29.83F
GREYBULL       FAIR      68  21  16 SE14      29.81F
WORLAND        FAIR      64  31  28 CALM      29.83F
SHERIDAN       FAIR      76  16  10 SE6       29.78F
BUFFALO        FAIR      70  16  12 SW15      29.85F
GILLETTE       FAIR      73  19  13 SW9G21    29.83F
HULETT         FAIR      72  23  16 S15G21    29.86S
NEWCASTLE      FAIR      68  19  15 S8G16     29.89F

$$
WYZ014>020-022>026-101>103-312000-
CENTRAL WYOMING

CITY           SKY/WX    TMP DP  RH WIND       PRES   REMARKS
BIG PINEY      FAIR      62  16  16 SW5G17    30.00F
PINEDALE       FAIR      61  18  18 SE9       30.01F
DUBOIS         FAIR      61  10  13 W20G33    29.95F
LANDER         FAIR      61  23  23 N5        29.90F
RIVERTON       FAIR      60  17  18 E6        29.92F
CASPER         FAIR      70  15  12 SW17G28   29.92F
DOUGLAS        FAIR      73  16  11 W13G21    29.91F

$$
WYZ021-027>030-104>119-312000-
SOUTHERN WYOMING

CITY           SKY/WX    TMP DP  RH WIND       PRES   REMARKS
EVANSTON       FAIR      67  17  14 S23G36    30.03F
KEMMERER       FAIR      63  12  14 SW31G39   30.02F
FORT BRIDGER   FAIR      68  15  13 W20G35    30.05F
ROCK SPRINGS   FAIR      68  10  10 W20G30    30.01F
DIXON          FAIR      68  17  14 W18       30.08F
RAWLINS        FAIR      67  12  12 W21G29    30.03F
SARATOGA       FAIR      66  12  12 W21G30    30.07F
LARAMIE        FAIR      65  11  12 W21G28    30.05F
CHEYENNE       FAIR      68  16  13 SW12G21   30.01F
TORRINGTON     FAIR      74  19  12 VRB5      29.91F
PINE BLUFFS    FAIR      72  18  13 SW16      29.99F

$$



USA.gov is the U.S. government's official web portal to all federal, state and local government web resources and services.